064  
SXUS52 KJAX 291013  
OSOJAX  
OTHER SURFACE OBSERVATIONS  
NATIONAL WEATHER SERVICE JACKSONVILLE FL  
600 AM EDT WED MAR 29 2017  
 
FLZ020>025-030>033-035>038-040-291100-   
..FLORIDA
 
 
 
CITY SKY/WX TMP DP RH WIND PRES REMARKS  
CECIL FIELD PTCLDY 57 55 94 CALM 29.99R  
HERLONG FIELD NOT AVBL  
FERNANDINA BCH NOT AVBL  
LAKE CITY FOG 59 59 100 SW3 30.00S VSB 1/4  
JUNIPER SPGS NOT AVBL  
BUNNELL NOT AVBL  
KEYSTONE HGTS FAIR 57 57 100 CALM 30.00S  

 
 
GAZ132>136-149>154-162>166-291100-   
..GEORGIA
 
 
 
CITY SKY/WX TMP DP RH WIND PRES REMARKS  
JESUP FAIR 64 61 88 CALM 29.98R  
HOMERVILLE FAIR 64 64 100 NW5 29.99R  
SWAINSBORO FAIR 61 61 100 CALM 29.99S  
CORDELE NOT AVBL  
EASTMAN FAIR 63 63 100 CALM 30.01R  

 
 
PLEASE NOTE: THESE OBSERVATIONS ARE NOT QUALITY CONTROLLED AND MAY  
NOT BE AVAILABLE AT ALL TIMES.  

 
 
 
CLICK HERE TO GO TO PREVIOUS BULLETINS.

The Nexlab FL Page
The Nexlab GA Page Main Text Page